Location: Corcelles
(46.1547°N, 4.7234°E)
Time: 21:01:09
(UTC+00:00)

NOSS 2-1 (C) - Pass Details

Date: 14 July 2020
Orbit: 443 x 1759 km, 63.3° (Epoch: 29 July)

Event Time Altitude Azimuth Distance (km) Brightness Sun altitude
Rises 00:25:16 0° 321° (NW) 3,009 7.7 -21.7°
Reaches altitude 10° 00:27:17 10° 323° (NW) 2,233 7.0 -21.6°
Maximum altitude 00:32:25 78° 50° (NE) 938 4.4 -21.4°
Enters shadow 00:39:09 12° 137° (SE) 2,913 6.7 -21.2°
